OOV-CUBE (TUBSAT-30)

Last updated on Thu Nov 21 2024 00:03:03 GMT+0000 (Coordinated Universal Time)

1 60240U 24128F 24325.37862208 .00004344 00000+0 37943-3 0 9994 2 60240 61.9984 60.0987 0025386 0.2054 359.9041 14.98090086 19990
UTC large
Height (km)
Speed (km/s)
/
Latitude / Longitude
Inclination (degrees)
Orbital Period (minutes)
Azimuth
Elevation
Range (km)
Doppler Factor

Next 0 passes for location: London (51.5072 / 0.1276)

Sorry there are no passes over London.